{"data":{"norad_id":49458,"epoch":"2026-05-24T15:25:00.484608Z","epoch_age_seconds":105655,"freshness":"FRESH","line1":"1 49458U 21104BC  26144.64236672  .00000580  00000+0  54556-4 0  9992","line2":"2 49458  53.2147 238.1560 0001197  84.2942 275.8187 15.08839298250240","mean_motion":15.08839298,"eccentricity":0.0001197,"inclination_deg":53.2147,"raan_deg":238.156,"arg_perigee_deg":84.2942,"mean_anomaly_deg":275.8187,"bstar":5.4556e-5,"rev_number":25024,"period_min":95.43759908088,"perigee_km":538.91746415869,"apogee_km":540.5736052375,"semimajor_km":6917.8825346981,"source":"CELESTRAK","updated_at":"2026-05-25T13:38:16.829950Z"}}